map of CWB home
CWB - Airport
Location
City:  Curitiba, Paraná, Brazil
Name:Afonso Pena International Airport
ICAO:SBCT
IATA:CWB

Details
Type:Airport (Aerodrome, Airfield)
Use:Public/Civil, International (customs port of entry)
Latitude:25°31'43"S (-25.528474)
Longitude:49°10'33"W (-49.175774)
Datum:WGS 1984
Elevation:2988 ft (911 m)
Variation:19.71°W (WMM2015v2 magnetic declination)
-0.12° annual change
Runways:2
Longest:7267 × 148 ft (2215 × 45 m), paved

Time
Time Zone:UTC-3 (DST-2)
Local Time:

Weather
METAR:SBCT 041400Z 11011KT 9999 BKN009 OVC013 18/15 Q1022
TAF:SBCT 040830Z 0412/0512 12008KT 9999 BKN012 TX19/0416Z TN14/0508Z
BECMG 0412/0414 BKN020
BECMG 0421/0423 BKN008 PROB40 0508/0510 5000 BR BKN005
RMK PER

Related Locations
Nearby:
Farthest:MMD: 12407 mi / 19968 km
Minamidaito [Minami Daito Airport], Minamidaito Jima, 47, JP

Find:

   beyond  
but within

Other Information
Maps:
NOTAMs:
Links:
Sources:

  
  • flag of Brazil
  • flag of Paraná
  • flag of Curitiba
  

Sectional Chart

Flight Planning
at skyvector.com

Satellite Image

Google Maps Satellite view

 

Copyright © 2004-2019 Karl L. Swartz. All rights reserved.
The Great Circle Mapper name and logo are trademarks of the Great Circle Mapper.
All other trademarks mentioned herein belong to their respective owners.
Please see credits for attibutions and further copyright information.

  Follow gcmap on Facebook Follow gcmap on Twitter GCmap on LinkedIn

hCard Microformat

Geo Microformat